When you browse on this site, cookies collect data to enhance your experience and personalize the content and advertising you see.
Visit our Privacy Policy to learn more. By continuing to use the site, you agree to this use of cookies and data.
  • In Italy
  • List of Countries
  • For 7 days
  • Water Temperature
  • Satellite Maps
  • Weather Map
  • Weather Widgets
  • user-avatar
    Login

    Hourly Weather Kapan

    Today, 18 January, Friday

    Time Temperature Precipitation Wind Pressure Humidity
    00:00 +1°C° 0.5 mm 1 mps 679 mmHg 88%
    01:00 +1°C° 0.3 mm 1 mps 680 mmHg 88%
    02:00 0°C° 0.3 mm 1 mps 680 mmHg 88%
    03:00 -1°C° 0.3 mm 0 mps 681 mmHg 87%
    04:00 -1°C° 0.2 mm 0 mps 681 mmHg 86%
    05:00 -1°C° 0.2 mm 0 mps 682 mmHg 86%
    06:00 -2°C° 0.2 mm 0 mps 682 mmHg 85%
    07:00 -1°C° 0.1 mm 0 mps 683 mmHg 82%
    08:00 -1°C° 0.1 mm 0 mps 683 mmHg 80%
    09:00 0°C° 0.1 mm 0 mps 684 mmHg 78%
    10:00 +2°C° 0.1 mm 1 mps 684 mmHg 75%
    11:00 +2°C° 0.1 mm 1 mps 684 mmHg 71%
    12:00 +3°C° 0.1 mm 1 mps 684 mmHg 68%
    13:00 +3°C° 0.1 mm 1 mps 684 mmHg 67%
    14:00 +3°C° 0.1 mm 1 mps 684 mmHg 66%
    15:00 +3°C° 0.1 mm 1 mps 684 mmHg 64%
    16:00 +3°C° 0.1 mm 1 mps 685 mmHg 68%
    17:00 +2°C° 0.1 mm 1 mps 685 mmHg 71%
    18:00 +1°C° 0.1 mm 1 mps 685 mmHg 74%
    19:00 0°C° 0 mm 1 mps 686 mmHg 73%
    20:00 0°C° 0 mm 1 mps 686 mmHg 71%
    21:00 -2°C° 0 mm 2 mps 686 mmHg 70%
    22:00 -3°C° 0 mm 2 mps 686 mmHg 68%
    23:00 -3°C° 0 mm 2 mps 686 mmHg 67%

    Tomorrow, 19 January, Saturday

    Time Temperature Precipitation Wind Pressure Humidity
    00:00 -3°C° 0 mm 2 mps 686 mmHg 65%
    01:00 -3°C° 0 mm 2 mps 686 mmHg 64%
    02:00 -3°C° 0 mm 2 mps 686 mmHg 63%
    03:00 -4°C° 0 mm 3 mps 686 mmHg 62%
    04:00 -4°C° 0 mm 3 mps 686 mmHg 62%
    05:00 -4°C° 0 mm 3 mps 686 mmHg 62%
    06:00 -4°C° 0 mm 3 mps 686 mmHg 62%
    07:00 -2°C° 0 mm 3 mps 686 mmHg 61%
    08:00 -1°C° 0 mm 3 mps 687 mmHg 59%
    09:00 +1°C° 0 mm 2 mps 687 mmHg 58%
    10:00 +2°C° 0 mm 2 mps 687 mmHg 55%
    11:00 +4°C° 0 mm 2 mps 687 mmHg 51%
    12:00 +5°C° 0 mm 2 mps 686 mmHg 48%
    13:00 +5°C° 0 mm 2 mps 686 mmHg 48%
    14:00 +5°C° 0 mm 2 mps 686 mmHg 49%
    15:00 +6°C° 0 mm 2 mps 685 mmHg 49%
    16:00 +4°C° 0 mm 2 mps 685 mmHg 52%
    17:00 +2°C° 0 mm 2 mps 686 mmHg 54%
    18:00 +1°C° 0 mm 2 mps 686 mmHg 57%
    19:00 +1°C° 0 mm 2 mps 686 mmHg 56%
    20:00 -1°C° 0 mm 3 mps 686 mmHg 54%
    21:00 -1°C° 0 mm 3 mps 686 mmHg 53%
    22:00 -1°C° 0 mm 3 mps 686 mmHg 51%
    23:00 -1°C° 0 mm 3 mps 686 mmHg 50%

    Day after tomorrow, 20 January, Sunday

    Time Temperature Precipitation Wind Pressure Humidity
    00:00 -1°C° 0 mm 3 mps 686 mmHg 48%
    01:00 -2°C° 0 mm 3 mps 686 mmHg 47%
    02:00 -2°C° 0 mm 3 mps 686 mmHg 47%
    03:00 -2°C° 0 mm 3 mps 686 mmHg 46%
    04:00 -4°C° 0 mm 3 mps 686 mmHg 46%
    05:00 -4°C° 0 mm 3 mps 686 mmHg 46%
    06:00 -4°C° 0 mm 3 mps 686 mmHg 45%
    07:00 -2°C° 0 mm 3 mps 687 mmHg 45%
    08:00 -1°C° 0 mm 2 mps 687 mmHg 45%
    09:00 +1°C° 0 mm 2 mps 688 mmHg 45%
    10:00 +3°C° 0 mm 2 mps 688 mmHg 42%
    11:00 +4°C° 0 mm 2 mps 687 mmHg 39%
    12:00 +7°C° 0 mm 1 mps 687 mmHg 35%
    13:00 +7°C° 0 mm 1 mps 687 mmHg 36%
    14:00 +7°C° 0 mm 1 mps 687 mmHg 37%
    15:00 +7°C° 0 mm 1 mps 686 mmHg 38%
    16:00 +5°C° 0 mm 1 mps 686 mmHg 41%
    17:00 +3°C° 0 mm 1 mps 686 mmHg 43%
    18:00 +2°C° 0 mm 1 mps 686 mmHg 46%
    19:00 +2°C° 0 mm 1 mps 687 mmHg 47%
    20:00 +1°C° 0 mm 1 mps 687 mmHg 48%
    21:00 +1°C° 0 mm 1 mps 687 mmHg 49%
    22:00 -1°C° 0 mm 2 mps 687 mmHg 48%
    23:00 -1°C° 0 mm 2 mps 687 mmHg 48%

    21 January, Monday

    Time Temperature Precipitation Wind Pressure Humidity
    00:00 -1°C° 0 mm 2 mps 687 mmHg 47%
    01:00 -2°C° 0 mm 2 mps 687 mmHg 46%
    02:00 -2°C° 0 mm 2 mps 687 mmHg 45%
    03:00 -2°C° 0 mm 2 mps 687 mmHg 44%
    04:00 -2°C° 0 mm 2 mps 687 mmHg 44%
    05:00 -2°C° 0 mm 2 mps 687 mmHg 44%
    06:00 -2°C° 0 mm 2 mps 687 mmHg 43%
    07:00 -2°C° 0 mm 2 mps 687 mmHg 44%
    08:00 -1°C° 0 mm 2 mps 687 mmHg 44%
    09:00 +2°C° 0 mm 1 mps 687 mmHg 44%
    10:00 +4°C° 0 mm 1 mps 687 mmHg 42%
    11:00 +5°C° 0 mm 1 mps 686 mmHg 39%
    12:00 +5°C° 0 mm 2 mps 686 mmHg 37%
    13:00 +5°C° 0 mm 2 mps 686 mmHg 39%
    14:00 +5°C° 0 mm 2 mps 685 mmHg 41%
    15:00 +5°C° 0 mm 2 mps 684 mmHg 42%
    16:00 +4°C° 0 mm 2 mps 684 mmHg 46%
    17:00 +2°C° 0 mm 2 mps 684 mmHg 49%
    18:00 +1°C° 0 mm 2 mps 684 mmHg 53%
    19:00 -1°C° 0 mm 2 mps 684 mmHg 52%
    20:00 -1°C° 0 mm 2 mps 684 mmHg 51%
    21:00 -2°C° 0 mm 2 mps 684 mmHg 50%
    22:00 -2°C° 0 mm 3 mps 684 mmHg 49%
    23:00 -2°C° 0 mm 3 mps 684 mmHg 48%

    22 January, Tuesday

    Time Temperature Precipitation Wind Pressure Humidity
    00:00 -2°C° 0 mm 3 mps 684 mmHg 47%
    01:00 -4°C° 0 mm 3 mps 684 mmHg 48%
    02:00 -4°C° 0 mm 3 mps 684 mmHg 49%
    03:00 -4°C° 0 mm 3 mps 684 mmHg 49%
    04:00 -4°C° 0 mm 3 mps 684 mmHg 50%
    05:00 -4°C° 0 mm 3 mps 684 mmHg 50%
    06:00 -4°C° 0 mm 3 mps 684 mmHg 51%
    07:00 -2°C° 0 mm 3 mps 684 mmHg 49%
    08:00 -1°C° 0 mm 3 mps 684 mmHg 48%
    09:00 0°C° 0 mm 3 mps 685 mmHg 46%
    10:00 +2°C° 0 mm 3 mps 685 mmHg 44%
    11:00 +3°C° 0 mm 3 mps 684 mmHg 41%
    12:00 +5°C° 0 mm 3 mps 684 mmHg 39%
    13:00 +5°C° 0 mm 3 mps 684 mmHg 40%
    14:00 +5°C° 0 mm 3 mps 684 mmHg 41%
    15:00 +6°C° 0 mm 2 mps 684 mmHg 41%
    16:00 +5°C° 0 mm 2 mps 684 mmHg 43%
    17:00 +3°C° 0 mm 2 mps 684 mmHg 45%
    18:00 +1°C° 0 mm 2 mps 685 mmHg 47%
    19:00 +1°C° 0 mm 2 mps 685 mmHg 47%
    20:00 -1°C° 0 mm 2 mps 685 mmHg 47%
    21:00 -1°C° 0 mm 2 mps 685 mmHg 47%
    22:00 -1°C° 0 mm 2 mps 685 mmHg 46%
    23:00 -1°C° 0 mm 2 mps 685 mmHg 46%

    23 January, Wednesday

    Time Temperature Precipitation Wind Pressure Humidity
    00:00 -2°C° 0 mm 2 mps 685 mmHg 45%
    01:00 -2°C° 0 mm 2 mps 685 mmHg 45%
    02:00 -2°C° 0 mm 2 mps 685 mmHg 45%
    03:00 -2°C° 0 mm 2 mps 685 mmHg 44%
    04:00 -2°C° 0 mm 2 mps 685 mmHg 45%
    05:00 -2°C° 0 mm 2 mps 685 mmHg 45%
    06:00 -3°C° 0 mm 2 mps 685 mmHg 46%
    07:00 -2°C° 0 mm 2 mps 685 mmHg 47%
    08:00 -1°C° 0 mm 2 mps 686 mmHg 48%
    09:00 +2°C° 0 mm 1 mps 686 mmHg 49%
    10:00 +3°C° 0 mm 1 mps 686 mmHg 48%
    11:00 +3°C° 0 mm 2 mps 686 mmHg 48%
    12:00 +4°C° 0 mm 2 mps 685 mmHg 47%
    13:00 +4°C° 0 mm 2 mps 685 mmHg 49%
    14:00 +4°C° 0 mm 2 mps 685 mmHg 51%
    15:00 +4°C° 0 mm 2 mps 685 mmHg 53%
    16:00 +3°C° 0 mm 2 mps 685 mmHg 58%
    17:00 +1°C° 0 mm 2 mps 685 mmHg 64%
    18:00 +1°C° 0 mm 1 mps 685 mmHg 69%
    19:00 -1°C° 0 mm 2 mps 685 mmHg 67%
    20:00 -1°C° 0 mm 2 mps 685 mmHg 65%
    21:00 -1°C° 0 mm 2 mps 685 mmHg 62%
    22:00 -1°C° 0 mm 2 mps 685 mmHg 61%
    23:00 -1°C° 0 mm 2 mps 685 mmHg 60%
    Show more